sat.trackr.live / text

‹ back to catalog

STARLINK-37875

NORAD 69967 · 2026-157AA

PAYLOAD ACTIVE UNKNOWN

§ Identity

Operator
Country
US
Launch date
2026-07-09
Launch site
AFETR
Launch vehicle
Mass (kg)
RCS (m²)

Purposes: comms

External: N2YO · Heavens-Above · Gunter

§ Orbital elements

Epoch: 2026-09-19T18:40:10.178976Z

Period
93.85 min
Inclination
53.1582°
Eccentricity
0.0001102
Mean motion
15.34411229 rev/d
Perigee alt
461.9 km
Apogee alt
463.4 km
Semi-major
6,840.8 km
B*
5.3077e-4
RAAN
336.9732°
Arg perigee
104.4089°
Mean anomaly
255.7036°
Rev number
1,126

§ Raw data

STARLINK-378751 69967U 26157AA  26262.77789559  .00017605  00000+0  53077-3 0  99962 69967  53.1582 336.9732 0001102 104.4089 255.7036 15.34411229 11266

JSON: /api/v1/satellites/69967 · /tle

For live sub-satellite position, see the globe view (requires WebGL).

§ Visibility from observer

Set your observer location to see the next 7 days of passes ≥ 10°. The values pass through the URL so the page stays shareable.

No JS? Fill the form by hand. The geolocation button needs JavaScript.